CW2927 Weather Reports


time (UTC)temp
F
wind
direction
speed
knots
gust
knots
rain 1hr
in
rain 24hr
in
rain mn
in
humidity
%
barometer
mb
20260504214704 59 169 1.7 5.2 0.00 0.31 0.31 72 1003.1
20260504214205 59 161 3.5 7.8 0.00 0.31 0.31 71 1003.1
20260504212704 58 191 0.9 5.2 0.00 0.31 0.31 73 1003.1
20260504212204 58 192 2.6 6.1 0.00 0.31 0.31 74 1003.2
20260504210705 57 185 1.7 4.3 0.00 0.31 0.31 75 1003.3
20260504210205 57 182 2.6 6.1 0.00 0.31 0.31 75 1003.3
20260504204705 56 207 3.5 6.1 0.00 0.31 0.31 76 1003.3
20260504202704 57 234 2.6 5.2 0.00 0.31 0.31 75 1003.4
20260504202205 56 182 4.3 7.0 0.00 0.31 0.31 75 1003.5
20260504200704 57 215 2.6 5.2 0.00 0.31 0.31 75 1003.4
20260504200204 57 169 1.7 7.8 0.00 0.31 0.31 77 1003.4
20260504194705 55 171 1.7 2.6 0.00 0.31 0.31 80 1003.5
20260504194205 54 168 1.7 7.8 0.00 0.31 0.31 81 1003.6
20260504192704 55 180 2.6 6.1 0.00 0.31 0.31 78 1003.9
20260504192204 55 241 1.7 7.8 0.00 0.31 0.31 80 1003.9
20260504190705 55 216 3.5 6.1 0.00 0.31 0.31 80 1004.0
20260504190204 54 192 1.7 5.2 0.00 0.31 0.31 80 1003.9
20260504184704 51 258 1.7 2.6 0.00 0.31 0.31 83 1004.2
20260504184205 51 260 2.6 4.3 0.00 0.31 0.31 83 1004.3
20260504182704 50 264 2.6 5.2 0.00 0.31 0.31 82 1004.3
20260504182204 50 279 0.9 6.1 0.00 0.31 0.31 83 1004.3
20260504180704 50 293 3.5 7.8 0.00 0.31 0.31 82 1004.4
20260504180204 50 266 3.5 7.8 0.00 0.31 0.31 82 1004.3
20260504174705 51 253 4.3 8.7 0.00 0.31 0.31 81 1004.3
20260504174204 52 264 4.3 11.3 0.00 0.31 0.31 81 1004.3
20260504172704 52 281 5.2 7.8 0.00 0.31 0.31 83 1004.3
20260504172204 51 290 5.2 12.2 0.00 0.31 0.31 84 1004.2
20260504170704 50 284 4.3 10.4 0.00 0.31 0.31 86 1004.4
20260504170204 50 285 6.1 10.4 0.00 0.31 0.31 89 1004.4
20260504160204 45 239 1.7 2.6 0.00 0.31 0.31 93 1004.3
20260504150704 44 239 0.9 1.7 0.01 0.31 0.31 94 1004.0
20260504140706 42 238 2.6 4.3 0.09 0.30 0.30 93 1003.7
20260504140204 42 211 2.6 4.3 0.10 0.30 0.30 93 1003.6
20260504130704 41 153 0.0 0.0 0.17 0.20 0.20 91 1003.2
20260504130204 41 153 0.0 0.0 0.17 0.20 0.20 91 1003.3
20260504120204 42 153 1.7 2.6 0.03 0.03 0.03 87 1003.3
20260504110704 43 164 1.7 2.6 0.00 0.00 0.00 81 1003.6
20260504110204 42 165 2.6 6.1 0.00 0.00 0.00 80 1003.8
20260504100204 38 168 2.6 5.2 0.00 0.00 0.00 79 1004.1
20260504080703 38 177 2.6 2.6 0.00 0.00 0.00 75 1004.7
20260504080204 38 177 1.7 5.2 0.00 0.00 0.00 75 1004.7
20260504070205 38 177 2.6 4.3 0.00 0.00 0.00 73 1004.6
20260504050705 36 273 0.9 1.7 0.00 0.00 0.00 81 1005.0
20260504050205 36 273 0.0 0.0 0.00 0.00 0.00 80 1005.0
20260504044705 36 273 0.0 0.0 0.00 0.00 0.00 79 1005.2
20260504044205 37 273 0.0 0.9 0.00 0.00 0.00 79 1005.2
20260504042705 37 273 0.0 0.0 0.00 0.00 0.00 79 1005.4
20260504042205 37 273 0.0 0.9 0.00 0.00 0.00 79 1005.4
20260504040705 38 273 0.0 0.0 0.00 0.00 0.00 78 1005.4
20260504040205 38 273 0.0 1.7 0.00 0.00 0.00 77 1005.4
20260504034705 39 273 0.0 0.0 0.00 0.00 0.00 75 1005.4
20260504034205 39 273 0.0 0.0 0.00 0.00 0.00 74 1005.5
20260504032704 39 273 0.0 0.0 0.00 0.00 0.00 73 1005.5
20260504032205 40 273 0.0 0.0 0.00 0.00 0.00 73 1005.5
20260504030705 40 273 0.0 0.0 0.00 0.00 0.00 73 1005.5
20260504030205 40 273 0.0 0.0 0.00 0.00 0.00 73 1005.6
20260504024705 40 273 0.0 0.9 0.00 0.00 0.00 72 1005.6
20260504024205 40 273 0.0 0.0 0.00 0.00 0.00 72 1005.6
20260504022705 41 273 0.0 1.7 0.00 0.00 0.00 71 1005.7
20260504022205 41 273 0.9 1.7 0.00 0.00 0.00 72 1005.7
20260504020705 41 273 0.0 0.9 0.00 0.00 0.00 71 1005.8
20260504020205 41 273 0.0 0.9 0.00 0.00 0.00 70 1005.7
20260504014705 41 273 0.0 0.0 0.00 0.00 0.00 68 1005.8
20260504014205 42 273 0.0 0.9 0.00 0.00 0.00 68 1005.9
20260504012705 42 273 0.9 1.7 0.00 0.00 0.00 67 1005.9
20260504012205 42 273 0.9 2.6 0.00 0.00 0.00 67 1005.9
20260504010705 43 273 0.0 0.0 0.00 0.00 0.00 67 1005.8
20260504010204 43 273 0.0 0.0 0.00 0.00 0.00 65 1005.9
20260504004705 45 273 0.0 0.0 0.00 0.00 0.00 62 1005.7
20260504004204 45 273 0.0 1.7 0.00 0.00 0.00 61 1005.6
20260504002704 46 273 0.0 0.0 0.00 0.00 0.00 59 1005.5
20260504002204 46 273 0.0 1.7 0.00 0.00 0.00 58 1005.5
20260504000704 47 273 0.9 1.7 0.00 0.00 0.00 55 1005.4
20260504000205 48 273 0.0 1.7 0.00 0.00 0.00 54 1005.4
20260503234704 49 273 0.0 0.0 0.00 0.00 0.00 52 1005.5
20260503234204 49 273 0.0 0.9 0.00 0.00 0.00 52 1005.5
20260503232705 50 273 0.0 0.9 0.00 0.00 0.00 49 1005.5
20260503232204 50 273 0.0 1.7 0.00 0.00 0.00 49 1005.5
20260503230705 50 273 0.9 1.7 0.00 0.00 0.00 47 1005.5
20260503230204 50 273 0.9 1.7 0.00 0.00 0.00 47 1005.5
20260503224705 51 273 0.9 1.7 0.00 0.00 0.00 45 1005.6
20260503224204 51 273 1.7 2.6 0.00 0.00 0.00 46 1005.6
20260503222705 50 273 0.0 2.6 0.00 0.00 0.00 47 1005.6
20260503222205 50 273 1.7 4.3 0.00 0.00 0.00 47 1005.6
20260503220704 50 294 0.9 2.6 0.00 0.00 0.00 46 1005.7
20260503220205 50 320 1.7 5.2 0.00 0.00 0.00 48 1005.7